Tracking 22438 objects as of 24-Feb-2021
HD Live streaming from Space Station
objects crossing your sky now

FREGAT DEB

Track FREGAT DEB now!
10-day predictions


NORAD ID: 45904
Int'l Code: 2011-037DZ
Perigee: 320.3 km
Apogee: 2,018.9 km
Inclination: 51.3 °
Period: 108.6 minutes
Semi major axis: 7540 km
RCS: Unknown
Launch date: July 18, 2011
Source: Commonwealth of Independent States (former USSR) (CIS)
Launch site: TYURATAM MISSILE AND SPACE COMPLEX (TTMTR)

Note: This is SATELLITE DEBRIS
aabbcc
Your satellite tracking list
Your tracking list is empty




NASA's NSSDC Master Catalog

Two Line Element Set (TLE):
1 45904U 11037DZ  20340.96239135  .10974880  00000-0  34160+0 0  9991
2 45904  51.3238 236.1816 1126297  69.8474 301.9476 13.25839738 17590
Source of the keplerian elements: AFSPC